| time (UTC) | temp F | wind direction | speed MPH | gust MPH | rain 1hr in | rain 24hr in | rain mn in | humidity % | barometer mb |
| 20260506154629 | 57 | 295 | 0.0 | 0.0 | 0.00 | 0.46 | 0.44 | 31 | 1005.4 |
| 20260506153136 | 59 | 329 | 0.0 | 0.0 | 0.00 | 0.46 | 0.44 | 39 | 1004.8 |
| 20260506151531 | 59 | 330 | 0.0 | 0.0 | 0.00 | 0.46 | 0.44 | 45 | 1004.6 |
| 20260506151501 | 59 | 330 | 0.0 | 0.0 | 0.00 | 0.46 | 0.44 | 45 | 1004.7 |
| 20260506150056 | 60 | 330 | 0.0 | 0.0 | 0.00 | 0.46 | 0.44 | 49 | 1004.7 |
| 20260506144621 | 60 | 331 | 0.0 | 0.0 | 0.00 | 0.46 | 0.44 | 46 | 1004.7 |
| 20260506143125 | 59 | 224 | 0.0 | 0.0 | 0.00 | 0.46 | 0.44 | 50 | 1004.8 |
| 20260506140156 | 59 | 265 | 0.0 | 0.0 | 0.00 | 0.46 | 0.44 | 42 | 1004.9 |
| 20260506134532 | 59 | 233 | 0.0 | 0.0 | 0.00 | 0.46 | 0.44 | 35 | 1005.1 |
| 20260506133024 | 58 | 234 | 0.0 | 0.0 | 0.00 | 0.46 | 0.44 | 35 | 1005.3 |
| 20260506131518 | 58 | 235 | 0.0 | 0.0 | 0.00 | 0.46 | 0.44 | 28 | 1005.4 |
| 20260506130014 | 57 | 204 | 0.0 | 0.0 | 0.00 | 0.46 | 0.44 | 21 | 1005.2 |
| 20260506124507 | 57 | 193 | 0.0 | 0.0 | 0.00 | 0.46 | 0.44 | 1 | 1005.2 |
| 20260506123014 | 57 | 238 | 0.0 | 0.0 | 0.01 | 0.46 | 0.44 | 1 | 1005.2 |
| 20260506121627 | 56 | 211 | 0.0 | 0.0 | 0.02 | 0.47 | 0.44 | 1 | 1005.3 |
| 20260506120059 | 56 | 173 | 0.0 | 0.0 | 0.02 | 0.47 | 0.44 | 1 | 1005.4 |
| 20260506114604 | 56 | 222 | 0.0 | 0.0 | 0.02 | 0.47 | 0.44 | 1 | 1005.4 |
| 20260506113049 | 55 | 196 | 0.0 | 0.0 | 0.02 | 0.46 | 0.43 | 1 | 1005.5 |
| 20260506113019 | 55 | 188 | 0.0 | 0.0 | 0.02 | 0.46 | 0.43 | 1 | 1005.5 |
| 20260506111514 | 54 | 228 | 0.0 | 0.0 | 0.02 | 0.46 | 0.43 | 1 | 1005.5 |
| 20260506110010 | 54 | 221 | 0.0 | 0.0 | 0.02 | 0.46 | 0.43 | 1 | 1005.5 |
| 20260506104604 | 54 | 214 | 0.0 | 0.0 | 0.02 | 0.45 | 0.42 | 1 | 1005.6 |
| 20260506103054 | 52 | 265 | 0.0 | 0.0 | 0.02 | 0.44 | 0.41 | 1 | 1005.5 |
| 20260506101624 | 52 | 217 | 0.0 | 0.0 | 0.03 | 0.44 | 0.41 | 1 | 1005.5 |
| 20260506100018 | 52 | 197 | 0.0 | 0.0 | 0.03 | 0.43 | 0.40 | 1 | 1005.4 |
| 20260506094514 | 52 | 261 | 0.0 | 0.0 | 0.04 | 0.43 | 0.39 | 1 | 1005.2 |
| 20260506093009 | 52 | 261 | 0.0 | 0.0 | 0.04 | 0.42 | 0.39 | 1 | 1005.1 |
| 20260506091502 | 51 | 261 | 0.0 | 0.0 | 0.05 | 0.41 | 0.38 | 1 | 1005.0 |
| 20260506090058 | 51 | 253 | 0.0 | 0.0 | 0.06 | 0.40 | 0.37 | 1 | 1004.9 |
| 20260506090010 | 51 | 253 | 0.0 | 0.0 | 0.06 | 0.40 | 0.37 | 1 | 1004.9 |
| 20260506084622 | 51 | 252 | 0.0 | 0.0 | 0.06 | 0.39 | 0.36 | 1 | 1004.8 |
| 20260506083048 | 50 | 269 | 0.0 | 0.0 | 0.06 | 0.38 | 0.35 | 1 | 1004.6 |
| 20260506083012 | 50 | 269 | 0.0 | 0.0 | 0.06 | 0.38 | 0.35 | 1 | 1004.6 |
| 20260506081619 | 50 | 300 | 0.0 | 0.0 | 0.06 | 0.36 | 0.33 | 1 | 1004.5 |
| 20260506073033 | 50 | 242 | 0.0 | 0.0 | 0.07 | 0.31 | 0.28 | 1 | 1004.2 |
| 20260506071601 | 50 | 242 | 0.0 | 0.0 | 0.08 | 0.30 | 0.27 | 1 | 1004.0 |
| 20260506061558 | 51 | 312 | 0.0 | 0.0 | 0.08 | 0.22 | 0.19 | 1 | 1003.5 |
| 20260506060146 | 51 | 47 | 0.0 | 0.0 | 0.08 | 0.20 | 0.17 | 1 | 1003.4 |
| 20260506044530 | 51 | 47 | 0.0 | 0.0 | 0.07 | 0.10 | 0.07 | 1 | 1002.8 |
| 20260506043049 | 51 | 47 | 0.0 | 0.0 | 0.05 | 0.08 | 0.05 | 1 | 1002.8 |
| 20260506041630 | 51 | 47 | 0.0 | 0.0 | 0.03 | 0.08 | 0.03 | 1 | 1002.8 |
| 20260506040056 | 51 | 47 | 0.0 | 0.0 | 0.02 | 0.06 | 0.02 | 1 | 1002.8 |
| 20260506034542 | 51 | 47 | 0.0 | 0.0 | 0.00 | 0.05 | 0.00 | 1 | 1002.8 |
| 20260506034508 | 51 | 47 | 0.0 | 0.0 | 0.00 | 0.05 | 0.00 | 1 | 1002.8 |
| 20260506033034 | 51 | 47 | 0.0 | 0.0 | 0.00 | 0.05 | 0.00 | 1 | 1002.9 |
| 20260506033004 | 51 | 47 | 0.0 | 0.0 | 0.00 | 0.05 | 0.00 | 1 | 1002.9 |
| 20260506030025 | 51 | 47 | 0.0 | 0.0 | 0.00 | 0.07 | 0.05 | 1 | 1002.9 |
| 20260506023048 | 51 | 47 | 0.0 | 0.0 | 0.00 | 0.07 | 0.05 | 1 | 1003.3 |
| 20260506021544 | 51 | 47 | 0.0 | 0.0 | 0.00 | 0.09 | 0.05 | 1 | 1003.2 |
| 20260506020044 | 51 | 47 | 0.0 | 0.0 | 0.00 | 0.09 | 0.05 | 1 | 1003.3 |
| 20260506013048 | 51 | 47 | 0.0 | 0.0 | 0.00 | 0.09 | 0.05 | 1 | 1003.6 |
| 20260506011512 | 51 | 47 | 0.0 | 0.0 | 0.00 | 0.13 | 0.05 | 1 | 1003.8 |
| 20260506010140 | 51 | 47 | 0.0 | 0.0 | 0.00 | 0.13 | 0.05 | 1 | 1003.9 |
| 20260506004600 | 51 | 47 | 0.0 | 0.0 | 0.00 | 0.13 | 0.05 | 1 | 1004.0 |
| 20260506001530 | 51 | 47 | 0.0 | 0.0 | 0.00 | 0.16 | 0.05 | 1 | 1004.3 |
| 20260506000023 | 52 | 47 | 0.0 | 0.0 | 0.00 | 0.16 | 0.05 | 1 | 1004.4 |
| 20260505234557 | 52 | 47 | 0.0 | 0.0 | 0.00 | 0.16 | 0.05 | 1 | 1004.6 |
| 20260505233112 | 52 | 47 | 0.0 | 0.0 | 0.00 | 0.16 | 0.05 | 1 | 1004.7 |
| 20260505231606 | 52 | 47 | 0.0 | 0.0 | 0.00 | 0.19 | 0.05 | 1 | 1004.9 |
| 20260505230055 | 52 | 47 | 0.0 | 0.0 | 0.00 | 0.19 | 0.05 | 1 | 1004.9 |
| 20260505224602 | 52 | 47 | 0.0 | 0.0 | 0.00 | 0.19 | 0.05 | 1 | 1004.9 |
| 20260505223114 | 52 | 84 | 0.0 | 0.0 | 0.00 | 0.19 | 0.05 | 1 | 1005.0 |
| 20260505221551 | 52 | 304 | 0.0 | 0.0 | 0.00 | 0.19 | 0.05 | 1 | 1005.1 |
| 20260505220040 | 52 | 82 | 0.0 | 0.0 | 0.00 | 0.19 | 0.05 | 1 | 1005.2 |
| 20260505214536 | 53 | 82 | 0.0 | 0.0 | 0.00 | 0.19 | 0.05 | 1 | 1005.3 |
| 20260505213023 | 53 | 82 | 0.0 | 0.0 | 0.00 | 0.19 | 0.05 | 1 | 1005.4 |
| 20260505211522 | 54 | 82 | 0.0 | 0.0 | 0.01 | 0.19 | 0.05 | 1 | 1005.5 |
| 20260505210026 | 54 | 82 | 0.0 | 0.0 | 0.02 | 0.19 | 0.05 | 1 | 1005.7 |
| 20260505204523 | 55 | 82 | 0.0 | 0.0 | 0.02 | 0.19 | 0.05 | 1 | 1005.7 |
| 20260505203014 | 55 | 82 | 0.0 | 0.0 | 0.02 | 0.19 | 0.05 | 1 | 1005.7 |
| 20260505201510 | 56 | 82 | 0.0 | 0.0 | 0.01 | 0.18 | 0.04 | 1 | 1005.6 |
| 20260505200005 | 57 | 82 | 0.0 | 0.0 | 0.00 | 0.17 | 0.03 | 1 | 1005.4 |
| 20260505194501 | 57 | 82 | 0.0 | 0.0 | 0.00 | 0.17 | 0.03 | 1 | 1005.2 |
| 20260505193054 | 57 | 82 | 0.0 | 0.0 | 0.00 | 0.17 | 0.03 | 1 | 1004.6 |
| 20260505191619 | 57 | 98 | 0.0 | 0.0 | 0.00 | 0.17 | 0.03 | 22 | 1004.1 |
| 20260505190045 | 58 | 102 | 0.0 | 0.0 | 0.00 | 0.17 | 0.03 | 29 | 1003.9 |
| 20260505184639 | 59 | 123 | 0.0 | 0.0 | 0.00 | 0.17 | 0.03 | 32 | 1003.9 |
| 20260505183118 | 61 | 111 | 0.0 | 0.0 | 0.00 | 0.17 | 0.03 | 16 | 1004.0 |
| 20260505181600 | 62 | 148 | 0.0 | 0.0 | 0.00 | 0.17 | 0.03 | 31 | 1003.7 |
| 20260505180139 | 62 | 118 | 0.0 | 0.0 | 0.00 | 0.17 | 0.03 | 34 | 1003.5 |
| 20260505174534 | 63 | 132 | 0.0 | 0.0 | 0.00 | 0.17 | 0.03 | 22 | 1003.5 |
| 20260505173056 | 63 | 132 | 0.0 | 0.0 | 0.00 | 0.17 | 0.03 | 31 | 1003.5 |
| 20260505173006 | 63 | 123 | 0.0 | 0.0 | 0.00 | 0.17 | 0.03 | 29 | 1003.5 |
| 20260505171553 | 64 | 153 | 0.0 | 0.0 | 0.00 | 0.17 | 0.03 | 34 | 1003.6 |
| 20260505170045 | 63 | 144 | 0.0 | 0.0 | 0.00 | 0.17 | 0.03 | 52 | 1003.7 |
| 20260505164549 | 63 | 227 | 0.0 | 0.0 | 0.00 | 0.17 | 0.03 | 52 | 1003.7 |
| 20260505161539 | 62 | 256 | 0.0 | 0.0 | 0.01 | 0.17 | 0.03 | 37 | 1004.0 |